Location: Chiswick
(51.4833°N, 0.2667°W)
Time: 00:20:38
(UTC+00:00)

Daily predictions for brighter satellites

Satellite Brightness Start Highest point End
(mag) Time Altitude Azimuth Time Altitude Azimuth Time Altitude Azimuth
SL-16 R/B 3.9 00:12:20 30° ENE 00:12:29 30° ENE 00:17:45 10° N
Cosmos 1943 Rocket 3.7 00:17:16 32° NNE 00:17:16 32° NNE 00:20:15 10° NNE
COSMOS 2455 4.1 00:18:59 37° NNW 00:18:59 37° NNW 00:23:41 10° NNE
CZ-2D R/B 4.5 00:19:01 10° NE 00:20:45 15° ENE 00:20:45 15° ENE
USA 229 DEB 4.3 00:19:21 10° NW 00:24:44 54° NNW 00:24:44 54° NNW
USA 229 4.3 00:19:27 10° NW 00:24:51 54° NNW 00:24:51 54° NNW
Cosmos 2297 Rocket 3.9 00:23:35 10° NNW 00:28:26 28° NE 00:28:49 28° NE
Resurs 1-4 Rocket 4.3 00:32:33 10° NE 00:34:54 19° ENE 00:34:54 19° ENE
NOSS 3-1 (A) 4.1 00:31:26 10° NW 00:37:41 67° N 00:37:41 67° N
Cosmos 2369 Rocket 3.6 00:41:06 36° NNE 00:41:06 36° NNE 00:44:26 10° NNE
CZ-4C R/B 3.5 00:47:10 39° NNW 00:47:10 39° NNW 00:52:48 10° NE
ATLAS 2AS CENTAUR R/B 4.3 00:48:59 10° WNW 00:56:06 34° N 01:02:56 10° NE
Cosmos 2227 Rocket 3.1 01:20:25 10° NNW 01:25:13 47° NNE 01:25:13 47° NNE
USA 234 3.4 01:28:28 10° E 01:34:58 70° NNE 01:37:43 37° NW
ADEOS II 3.6 01:34:05 10° NNE 01:38:28 29° E 01:38:28 29° E
Cosmos 2219 4.2 01:34:03 10° NNW 01:37:45 41° NNW 01:37:45 41° NNW
Cosmos 2181 Rocket 4.2 01:47:57 63° E 01:47:57 63° E 01:53:50 10° NNE
Cosmos 1959 Rocket 4.5 01:49:24 10° N 01:55:10 74° NE 01:55:10 74° NE
SL-16 R/B 3.1 01:57:26 47° NW 01:57:26 47° NW 02:01:53 10° NNW
Cosmos 2341 Rocket 4.4 01:52:53 10° NNW 01:57:55 54° NW 01:57:55 54° NW
Cosmos 1943 Rocket 4.1 01:58:47 19° NW 01:59:29 20° NNW 02:03:30 10° NNE
ARIANE 5 R/B 4.4 01:56:35 10° NE 02:00:36 23° E 02:01:51 21° ESE
IRS-1D 4.3 01:56:46 10° NNE 02:01:47 48° E 02:01:47 48° E
CZ-2D R/B 2.5 01:57:44 10° NNE 02:02:04 59° NNE 02:02:04 59° NNE
ATLAS 5 CENTAUR R/B 2.8 02:07:56 40° NE 02:07:56 40° NE 02:11:06 10° NE
NPP 3.9 02:03:47 10° NNE 02:08:28 68° NNE 02:08:28 68° NNE
Cosmos 2297 Rocket 3.3 02:07:23 10° NNW 02:10:32 34° NW 02:10:32 34° NW
CBERS-1 4.5 02:09:10 10° NNE 02:13:59 55° E 02:13:59 55° E
Resurs 1-4 Rocket 2.5 02:11:38 10° N 02:15:58 57° NNW 02:15:58 57° NNW
Cosmos 2082 4.0 02:11:38 10° NNW 02:17:20 65° ENE 02:20:23 28° SE
SL-19 R/B 4.4 02:21:28 62° NW 02:21:28 62° NW 02:26:14 10° NNW
Cosmos 2369 Rocket 4.0 02:22:52 19° NW 02:23:55 20° NNW 02:28:00 10° NNE
SJ 16-02 4.1 02:24:17 10° N 02:27:20 18° NE 02:30:23 10° E
Gbstr 26 Del rocket 4.4 02:27:25 46° W 02:30:14 88° N 02:37:59 10° E
Cosmos 1697 Rocket 3.6 02:32:33 35° SE 02:33:47 40° ESE 02:39:00 10° NE
CZ-4C R/B 4.2 02:32:20 13° NW 02:36:49 29° N 02:42:56 10° ENE
Cosmos 1980 Rocket 4.0 02:35:19 17° SE 02:38:08 25° ESE 02:42:41 10° NE
H-2A R/B 4.2 02:34:53 10° ESE 02:38:34 26° ENE 02:42:17 10° N
USA 267 3.4 02:34:28 10° ENE 02:40:56 59° SE 02:42:17 50° S
Cosmos 2221 4.4 02:42:57 21° NNW 02:42:57 21° NNW 02:44:51 10° N
NOSS 2-2 (E) 4.4 02:37:51 10° NW 02:43:16 90° SSW 02:50:50 10° SE
Cosmos 2263 Rocket 3.7 02:38:08 10° NNW 02:43:20 36° NE 02:48:32 10° ESE
SL-8 R/B 4.4 02:46:01 42° SE 02:46:01 42° SE 02:49:23 10° ESE
Cosmos 1818 3.4 02:46:11 76° W 02:46:27 78° NW 02:51:57 10° NE
ATLAS 2AS CENTAUR R/B 4.2 02:41:53 10° NW 02:49:05 38° NNE 02:55:51 10° E
NOSS 2-2 (D) 4.3 02:46:24 10° NW 02:51:42 88° NE 02:59:08 10° SE
USA 307 4.4 02:52:25 27° SE 02:52:25 27° SE 02:55:37 10° E
Cosmos 1821 Rocket 3.9 02:46:48 10° N 02:53:11 88° E 02:56:30 30° S
Cosmos 1470 Rocket 3.8 02:50:08 10° N 02:54:34 67° ENE 02:55:25 53° SE
USA 308 4.3 02:55:23 29° SE 02:55:23 29° SE 02:58:44 10° E
SL-24 R/B 4.3 02:59:50 48° SSE 03:01:10 86° ENE 03:06:32 10° NNW
SL-24 R/B - RUBIN 2 4.5 03:01:09 52° SW 03:02:55 83° NW 03:09:44 10° NE
Celestis-02/Orion 38 4.4 03:02:45 10° SSE 03:08:01 75° WSW 03:13:13 10° NNW
Cosmos 1934 Rocket 4.1 03:02:07 10° N 03:08:12 71° ENE 03:14:15 10° SSE
Cosmos 1777 Rocket 3.8 03:03:29 10° NNW 03:08:45 76° WSW 03:12:06 22° SSE
Meteor 1-22 4.5 03:04:21 10° NNW 03:09:48 67° W 03:11:01 51° SSW
Cosmos 2227 Rocket 3.7 03:04:45 10° NW 03:06:57 22° WNW 03:06:57 22° WNW
Cosmos 1238 Rocket 4.4 03:03:44 10° N 03:10:24 68° ENE 03:16:41 10° SSE
Cosmos 1992 Rocket 4.2 03:10:37 49° W 03:11:07 51° WNW 03:16:14 10° NNE
Cosmos 1782 3.6 03:10:11 36° SE 03:11:23 49° E 03:15:18 10° NNE
Lacrosse 5 2.4 03:12:00 42° S 03:13:03 49° SE 03:17:57 10° ENE
Cosmos 1656 3.6 03:12:05 54° WSW 03:13:09 68° WNW 03:18:42 10° NNE
Cosmos 405 4.4 03:16:46 28° NNW 03:16:46 28° NNW 03:18:47 10° N
CZ-2C R/B 3.9 03:13:17 10° NNE 03:16:51 39° E 03:18:31 25° SSE
Meteor 1-20 Rocket 4.0 03:11:25 10° NNW 03:16:52 65° W 03:18:42 40° SSW
Cosmos 1515 Rocket 4.0 03:15:08 34° SSE 03:16:54 62° E 03:21:18 10° NNE
ADEOS Rocket 4.3 03:10:59 10° SE 03:17:13 42° ENE 03:22:53 10° N
USA 234 3.2 03:11:42 10° SE 03:18:07 59° SW 03:24:35 10° WNW
ADEOS II 2.3 03:13:31 10° N 03:18:35 50° WNW 03:19:23 46° W
CZ-4B R/B 3.9 03:15:20 10° N 03:20:08 45° WNW 03:20:43 43° W
USA 276 3.4 03:21:38 35° ESE 03:21:38 35° ESE 03:23:53 10° E
Nadezhda 3 Rocket 3.9 03:18:39 35° SSW 03:21:27 79° W 03:27:39 10° N
Cosmos 220 Rocket 4.3 03:24:54 48° WNW 03:24:59 48° WNW 03:29:09 10° NNE
SL-08 R/B 3.8 03:26:12 40° WNW 03:26:12 40° WNW 03:29:58 10° NNW
Cosmos 972 Rocket 3.8 03:24:15 41° SSW 03:25:59 85° ESE 03:30:56 10° NNE
Cosmos 1356 3.7 03:23:34 10° N 03:27:02 67° ENE 03:28:27 32° SSE
Cosmos 1633 Rocket 4.2 03:23:20 10° NNW 03:26:00 29° NW 03:26:00 29° NW
MSX 4.2 03:21:57 10° NNE 03:27:44 64° ESE 03:32:39 14° S
Timation 1 Rocket 4.2 03:22:06 10° NW 03:28:06 72° WSW 03:34:04 10° SSE
Cosmos 1328 Rocket 3.5 03:28:50 54° WSW 03:29:32 64° WNW 03:33:59 10° N
Cosmos 1605 Rocket 4.3 03:24:34 10° N 03:30:57 70° ENE 03:37:21 10° SSE
Cosmos 2278 4.0 03:28:10 25° S 03:31:32 64° ESE 03:37:12 10° NE
IDEFIX/ARIANE 42P 2.5 03:26:17 10° NNE 03:31:37 89° W 03:34:28 28° SSW
Cosmos 1535 Rocket 4.5 03:25:27 10° N 03:31:51 85° W 03:38:16 10° S
Cosmos 1933 Rocket 3.4 03:27:34 10° NNW 03:31:58 77° W 03:34:18 27° S
CZ-3B R/B 1.8 03:32:05 57° WSW 03:32:46 87° NNW 03:41:10 10° ENE
Cosmos 1606 4.0 03:34:14 27° NW 03:34:14 27° NW 03:36:47 10° N
Cosmos 2228 Rocket 3.9 03:31:11 12° SSE 03:35:05 49° E 03:39:21 10° NNE
IRS-1C 4.3 03:30:11 10° N 03:35:24 55° WNW 03:37:13 37° WSW
Cosmos 1151 Rocket 3.2 03:37:30 46° W 03:38:00 48° WNW 03:42:13 10° N
Cosmos 2369 3.7 03:36:41 33° SW 03:39:26 84° WNW 03:45:13 10° NNE
ARIANE 5 R/B 2.5 03:35:04 10° N 03:40:08 61° WNW 03:42:11 35° SW
SL-16 R/B 4.5 03:42:32 11° WNW 03:42:32 11° WNW 03:43:05 10° WNW
IRS-1D 4.5 03:36:19 10° N 03:41:03 33° WNW 03:42:15 29° W
CZ-2D R/B 3.7 03:38:53 10° N 03:42:28 19° NW 03:43:22 18° WNW
CZ-4C R/B 2.9 03:42:39 20° S 03:45:04 78° WSW 03:48:41 10° NNW
Cosmos 1869 Rocket 3.8 03:46:35 10° N 03:50:57 71° ENE 03:55:16 10° SSE
ATLAS 5 CENTAUR R/B 3.1 03:49:28 20° WNW 03:51:36 28° NNW 03:55:58 10° NE
Cosmos 1933 4.3 03:54:06 30° WNW 03:54:22 30° WNW 03:58:01 10° N
Resurs 1-4 Rocket 3.9 03:53:00 10° NNW 03:55:49 15° NW 03:57:02 14° WNW
Meteor 1-4 Rocket 4.1 03:54:07 10° SSE 03:57:17 34° E 04:00:30 10° NNE
USA 305 3.0 03:58:51 31° SW 04:00:45 67° SSE 04:04:58 10° ENE
X-37B 1.9 04:01:25 25° S 04:01:36 25° S 04:04:19 10° ESE
CZ-2D R/B 3.9 03:59:38 10° N 04:03:37 44° WNW 04:05:24 28° WSW
Cosmos 2360 4.3 04:00:37 24° SW 04:04:11 67° NW 04:09:56 10° NNE
USA 306 3.0 04:02:46 29° SW 04:04:49 70° SSE 04:09:04 10° ENE
SJ 16-02 1.2 04:02:05 10° NNW 04:06:29 77° WSW 04:10:52 10° SSE
Cosmos 389 Rocket 2.6 04:06:11 31° SW 04:07:36 53° WNW 04:11:07 10° N
PSLV R/B 3.7 04:04:41 10° NNE 04:08:55 72° ESE 04:13:05 10° S
Meteor 1-26 Rocket 4.4 04:06:29 21° SW 04:09:54 48° WNW 04:15:09 10° N
ASTEX 1 3.9 04:08:02 10° N 04:12:40 40° WNW 04:15:51 19° SW
H-2A R/B 2.4 04:10:08 10° S 04:14:19 45° W 04:18:37 10° NNW
ERS-2 2.0 04:11:32 10° S 04:15:09 64° WSW 04:18:50 10° NNW
Iridium 2 4.2 04:14:43 24° SW 04:16:25 38° WNW 04:19:59 10° N
CZ-2C R/B 2.6 04:11:26 10° NNE 04:16:33 80° ESE 04:21:43 10° SSW
Cosmos 1339 Rocket 4.5 04:10:41 10° SSW 04:16:58 73° WNW 04:23:12 10° N
NOSS 3-4 (A) 4.1 04:10:11 10° NW 04:17:00 72° NE 04:24:35 10° SE
NOSS 3-4 (C) 4.1 04:10:18 10° NW 04:17:06 72° NE 04:24:41 10° SE
Cosmos 1697 Rocket 3.2 04:14:18 21° WSW 04:17:44 44° NW 04:23:08 10° NNE
Gbstr 26 Del rocket 4.4 04:09:58 11° WNW 04:17:47 66° SSW 04:24:58 10° SE
Cosmos 192 4.3 04:14:10 14° SSW 04:18:21 77° WNW 04:23:19 10° NNE
COSMOS 2441 4.5 04:13:36 10° N 04:18:25 57° WNW 04:22:56 12° SSW
PAYLOAD A 3.7 04:15:23 10° NNE 04:20:09 86° WNW 04:24:50 10° SSW
Cosmos 1980 Rocket 2.2 04:17:07 16° SW 04:21:42 67° NW 04:27:21 10° NNE
USA 267 3.4 04:17:35 10° ENE 04:24:06 70° NNW 04:29:37 15° W
Cosmos 990 Rocket 3.9 04:20:55 10° NNW 04:26:06 74° WSW 04:31:17 10° SSE
SL-8 R/B 4.4 04:24:00 19° W 04:26:48 36° SSW 04:31:10 10° SE
CZ-4C R/B 3.9 04:20:46 10° NW 04:27:01 42° NNE 04:34:22 10° E
Cosmos 2322 Rocket 3.5 04:21:55 10° S 04:27:12 42° ESE 04:32:33 10° NE
Meteor 1-10 Rocket 4.3 04:21:30 10° SSW 04:27:17 88° W 04:33:13 10° NNE
Cosmos 1459 Rocket 4.3 04:21:14 10° N 04:27:22 69° ENE 04:33:24 10° SSE
Cosmos 2263 Rocket 2.3 04:22:01 10° NW 04:27:30 53° WSW 04:33:00 10° S
NOSS 3-3 (A) 4.2 04:22:45 10° SSW 04:28:33 70° SE 04:35:11 10° NE
NOSS 3-3 (C) 4.2 04:22:56 10° SSW 04:28:40 69° SE 04:35:15 10° NE
USA 307 2.9 04:28:36 19° WSW 04:31:40 89° SSE 04:35:56 10° ENE
Cosmos 468 Rocket 4.5 04:26:44 10° S 04:31:58 64° ESE 04:37:12 10° NNE
Cosmos 1812 2.7 04:28:09 10° SSW 04:31:58 63° WNW 04:35:49 10° N
Cosmos 1844 Rocket 3.6 04:28:55 10° NNW 04:34:25 51° NE 04:39:55 10° SE
USA 308 2.9 04:31:34 18° WSW 04:34:45 89° NNW 04:39:03 10° ENE
SL-16 R/B 2.9 04:29:17 10° S 04:34:48 56° ESE 04:40:22 10° NE
Cosmos 1500 3.9 04:31:32 10° NNW 04:35:00 32° W 04:38:26 10° SSW
COSMO-SKYMED 1 3.7 04:32:55 10° SE 04:37:05 48° ENE 04:41:18 10° N
ATLAS CENTAUR R/B 3.4 04:28:58 10° WNW 04:40:20 67° NNE 04:44:36 10° E
Cosmos 1666 2.7 04:37:12 10° NNW 04:41:00 58° W 04:44:44 10° S
ATLAS 2AS CENTAUR R/B 3.0 04:33:27 10° NW 04:41:08 80° NE 04:48:12 10° SE
ERBS 3.5 04:43:23 10° SSW 04:46:31 37° SE 04:49:41 10° ENE
Cosmos 1782 4.4 04:45:49 13° WSW 04:48:00 19° WNW 04:50:57 10° NNW
CZ-4B R/B 1.5 04:46:11 10° S 04:49:13 45° W 04:52:22 10° NNW
Meteor 2-6 Rocket 4.5 04:44:34 10° SSW 04:50:05 52° WNW 04:55:48 10° N
CZ-2C R/B 4.1 04:48:09 10° NNW 04:51:06 22° WNW 04:53:55 11° WSW
Cosmos 1898 Rocket 3.7 04:49:31 10° NNW 04:54:34 49° WSW 04:59:37 10° S
deb Chang Zheng 4 3.5 04:50:35 10° NNE 04:54:56 84° WNW 04:59:13 10° SSW
Lacrosse 5 2.1 04:51:11 11° WSW 04:56:00 61° NNW 05:01:04 10° ENE
USA 276 2.2 04:53:59 12° W 04:56:57 68° S 05:00:09 10° E
ADEOS II 4.1 04:55:38 10° NNW 04:57:09 11° NW 04:58:39 10° WNW
Cosmos 2173 Rocket 4.0 04:51:16 10° NNW 04:57:35 76° W 05:03:55 10° S
CZ-4B R/B 4.1 04:55:24 10° NNE 04:58:59 42° E 05:02:26 10° S
CZ-4B R/B 4.3 04:54:52 10° NNE 04:59:08 75° ESE 05:03:32 10° S
BREEZE-M DEB (TANK) 3.8 04:57:06 10° WSW 05:00:16 64° SSE 05:09:49 10° E
BREEZE-M DEB (TANK) 3.9 04:55:30 10° SW 05:00:59 28° S 05:03:33 10° ESE
USA 234 4.5 04:57:39 10° SSW 05:02:07 19° SW 05:06:37 10° W
ADEOS Rocket 3.4 04:56:15 10° S 05:02:44 45° W 05:08:39 10° NNW
USA 32 4.3 04:59:34 10° NNW 05:04:34 45° W 05:09:32 10° SSW
ADEOS 3.6 05:01:42 10° NNE 05:06:55 72° WNW 05:12:07 10° SSW
Cosmos 2061 Rocket 4.2 05:00:44 10° N 05:07:12 89° ENE 05:13:40 10° S
Cosmos 1707 Rocket 3.7 05:03:54 10° SSW 05:08:08 53° WNW 05:12:25 10° N
Cosmos 44 3.5 05:03:47 10° WSW 05:08:09 50° NW 05:12:48 10° NE
Cosmos 921 Rocket 3.7 05:05:53 10° SW 05:09:44 34° WNW 05:13:36 10° N
IDEFIX/ARIANE 42P 4.1 05:06:58 10° NNW 05:10:31 19° NW 05:14:03 10° W
Cosmos 372 Rocket 4.0 05:06:33 10° NNW 05:11:46 89° WSW 05:16:53 10° SSE
